Location: Unspecified
(0.0000°N, 0.0000°E)
Time: 07:44:58
(UTC+00:00)

Transit 4A - Pass Details

Date: 09 October 2023
Orbit: 864 x 979 km, 66.8° (Epoch: 05 December)

Event Time Altitude Azimuth Distance (km) Brightness Sun altitude
Rises 19:11:39 0° 346° (NNW) 3,560 11.0 -21.0°
Reaches altitude 10° 19:14:13 10° 349° (NNW) 2,601 10.3 -21.6°
Maximum altitude 19:20:12 67° 70° (ENE) 969 7.7 -23.1°
Enters shadow 19:23:24 28° 145° (SE) 1,614 8.9 -23.9°
Drops below altitude 10° 19:26:01 10° 152° (SSE) 2,538 - -24.5°
Sets 19:28:30 0° 155° (SSE) 3,467 - -25.1°
